Year,Month,Day,Hour,Minute,Value (Times are PST for temperature in C)
2019,10,28,00,00,0.50
2019,10,28,00,01,0.50
2019,10,28,00,02,0.50
2019,10,28,00,03,0.50
2019,10,28,00,04,0.50
2019,10,28,00,05,0.50
2019,10,28,00,06,0.50
2019,10,28,00,07,0.50
2019,10,28,00,08,0.50
2019,10,28,00,09,0.50
2019,10,28,00,10,0.50
2019,10,28,00,11,0.50
2019,10,28,00,12,0.50
2019,10,28,00,13,0.40
2019,10,28,00,14,0.40
2019,10,28,00,15,0.40
2019,10,28,00,16,0.40
2019,10,28,00,17,0.40
2019,10,28,00,18,0.40
2019,10,28,00,19,0.40
2019,10,28,00,20,0.50
2019,10,28,00,21,0.50
2019,10,28,00,22,0.60
2019,10,28,00,23,0.60
2019,10,28,00,24,0.60
2019,10,28,00,25,0.60
2019,10,28,00,26,0.60
2019,10,28,00,27,0.60
2019,10,28,00,28,0.60
2019,10,28,00,29,0.60
2019,10,28,00,30,0.60
2019,10,28,00,31,0.60
2019,10,28,00,32,0.60
2019,10,28,00,33,0.60
2019,10,28,00,34,0.60
2019,10,28,00,35,0.60
2019,10,28,00,36,0.60
2019,10,28,00,37,0.60
2019,10,28,00,38,0.50
2019,10,28,00,39,0.50
2019,10,28,00,40,0.50
2019,10,28,00,41,0.50
2019,10,28,00,42,0.40
2019,10,28,00,43,0.40
2019,10,28,00,44,0.40
2019,10,28,00,45,0.40
2019,10,28,00,46,0.40
2019,10,28,00,47,0.40
2019,10,28,00,48,0.40
2019,10,28,00,49,0.40
2019,10,28,00,50,0.40
2019,10,28,00,51,0.40
2019,10,28,00,52,0.40
2019,10,28,00,53,0.40
2019,10,28,00,54,0.40
2019,10,28,00,55,0.40
2019,10,28,00,56,0.40
2019,10,28,00,57,0.40
2019,10,28,00,58,0.40
2019,10,28,00,59,0.40
2019,10,28,01,00,0.40
2019,10,28,01,01,0.40
2019,10,28,01,02,0.40
2019,10,28,01,03,0.40
2019,10,28,01,04,0.40
2019,10,28,01,05,0.40
2019,10,28,01,06,0.40
2019,10,28,01,07,0.40
2019,10,28,01,08,0.40
2019,10,28,01,09,0.40
2019,10,28,01,10,0.40
2019,10,28,01,11,0.40
2019,10,28,01,12,0.40
2019,10,28,01,13,0.40
2019,10,28,01,14,0.30
2019,10,28,01,15,0.30
2019,10,28,01,16,0.30
2019,10,28,01,17,0.30
2019,10,28,01,18,0.30
2019,10,28,01,19,0.30
2019,10,28,01,20,0.30
2019,10,28,01,21,0.30
2019,10,28,01,22,0.30
2019,10,28,01,23,0.30
2019,10,28,01,24,0.20
2019,10,28,01,25,0.20
2019,10,28,01,26,0.20
2019,10,28,01,27,0.20
2019,10,28,01,28,0.20
2019,10,28,01,29,0.20
2019,10,28,01,30,0.10
2019,10,28,01,31,0.10
2019,10,28,01,32,0.10
2019,10,28,01,33,0.10
2019,10,28,01,34,0.10
2019,10,28,01,35,0.10
2019,10,28,01,36,0.10
2019,10,28,01,37,0.10
2019,10,28,01,38,0.10
2019,10,28,01,39,0.10
2019,10,28,01,40,0.10
2019,10,28,01,41,0.10
2019,10,28,01,42,0.00
2019,10,28,01,43,0.00
2019,10,28,01,44,0.00
2019,10,28,01,45,0.00
2019,10,28,01,46,0.00
2019,10,28,01,47,0.00
2019,10,28,01,48,0.00
2019,10,28,01,49,0.00
2019,10,28,01,50,0.00
2019,10,28,01,51,-0.10
2019,10,28,01,52,-0.10
2019,10,28,01,53,-0.10
2019,10,28,01,54,-0.10
2019,10,28,01,55,-0.10
2019,10,28,01,56,-0.10
2019,10,28,01,57,-0.10
2019,10,28,01,58,-0.10
2019,10,28,01,59,-0.10
2019,10,28,02,00,-0.10
2019,10,28,02,01,-0.10
2019,10,28,02,02,-0.10
2019,10,28,02,03,-0.10
2019,10,28,02,04,-0.20
2019,10,28,02,05,-0.20
2019,10,28,02,06,-0.20
2019,10,28,02,07,-0.20
2019,10,28,02,08,-0.20
2019,10,28,02,09,-0.20
2019,10,28,02,10,-0.20
2019,10,28,02,11,-0.20
2019,10,28,02,12,-0.20
2019,10,28,02,13,-0.20
2019,10,28,02,14,-0.20
2019,10,28,02,15,-0.20
2019,10,28,02,16,-0.20
2019,10,28,02,17,-0.30
2019,10,28,02,18,-0.30
2019,10,28,02,19,-0.30
2019,10,28,02,20,-0.30
2019,10,28,02,21,-0.30
2019,10,28,02,22,-0.30
2019,10,28,02,23,-0.30
2019,10,28,02,24,-0.30
2019,10,28,02,25,-0.20
2019,10,28,02,26,-0.20
2019,10,28,02,27,-0.20
2019,10,28,02,28,-0.30
2019,10,28,02,29,-0.30
2019,10,28,02,30,-0.30
2019,10,28,02,31,-0.30
2019,10,28,02,32,-0.30
2019,10,28,02,33,-0.30
2019,10,28,02,34,-0.30
2019,10,28,02,35,-0.20
2019,10,28,02,36,-0.20
2019,10,28,02,37,-0.20
2019,10,28,02,38,-0.20
2019,10,28,02,39,-0.20
2019,10,28,02,40,-0.20
2019,10,28,02,41,-0.20
2019,10,28,02,42,-0.20
2019,10,28,02,43,-0.20
2019,10,28,02,44,-0.20
2019,10,28,02,45,-0.20
2019,10,28,02,46,-0.20
2019,10,28,02,47,-0.20
2019,10,28,02,48,-0.20
2019,10,28,02,49,-0.20
2019,10,28,02,50,-0.20
2019,10,28,02,51,-0.20
2019,10,28,02,52,-0.20
2019,10,28,02,53,-0.20
2019,10,28,02,54,-0.20
2019,10,28,02,55,-0.20
2019,10,28,02,56,-0.20
2019,10,28,02,57,-0.20
2019,10,28,02,58,-0.20
2019,10,28,02,59,-0.20
2019,10,28,03,00,-0.20
2019,10,28,03,01,-0.20
2019,10,28,03,02,-0.20
2019,10,28,03,03,-0.20
2019,10,28,03,04,-0.20
2019,10,28,03,05,-0.20
2019,10,28,03,06,-0.30
2019,10,28,03,07,-0.30
2019,10,28,03,08,-0.30
2019,10,28,03,09,-0.30
2019,10,28,03,10,-0.30
2019,10,28,03,11,-0.30
2019,10,28,03,12,-0.30
2019,10,28,03,13,-0.30
2019,10,28,03,14,-0.30
2019,10,28,03,15,-0.30
2019,10,28,03,16,-0.30
2019,10,28,03,17,-0.30
2019,10,28,03,18,-0.40
2019,10,28,03,19,-0.40
2019,10,28,03,20,-0.40
2019,10,28,03,21,-0.40
2019,10,28,03,22,-0.40
2019,10,28,03,23,-0.40
2019,10,28,03,24,-0.40
2019,10,28,03,25,-0.40
2019,10,28,03,26,-0.40
2019,10,28,03,27,-0.40
2019,10,28,03,28,-0.40
2019,10,28,03,29,-0.40
2019,10,28,03,30,-0.40
2019,10,28,03,31,-0.40
2019,10,28,03,32,-0.40
2019,10,28,03,33,-0.40
2019,10,28,03,34,-0.40
2019,10,28,03,35,-0.40
2019,10,28,03,36,-0.40
2019,10,28,03,37,-0.40
2019,10,28,03,38,-0.40
2019,10,28,03,39,-0.40
2019,10,28,03,40,-0.40
2019,10,28,03,41,-0.50
2019,10,28,03,42,-0.50
2019,10,28,03,43,-0.50
2019,10,28,03,44,-0.50
2019,10,28,03,45,-0.50
2019,10,28,03,46,-0.50
2019,10,28,03,47,-0.60
2019,10,28,03,48,-0.60
2019,10,28,03,49,-0.60
2019,10,28,03,50,-0.60
2019,10,28,03,51,-0.60
2019,10,28,03,52,-0.60
2019,10,28,03,53,-0.60
2019,10,28,03,54,-0.60
2019,10,28,03,55,-0.60
2019,10,28,03,56,-0.60
2019,10,28,03,57,-0.70
2019,10,28,03,58,-0.70
2019,10,28,03,59,-0.70
2019,10,28,04,00,-0.70
2019,10,28,04,01,-0.70
2019,10,28,04,02,-0.70
2019,10,28,04,03,-0.70
2019,10,28,04,04,-0.70
2019,10,28,04,05,-0.70
2019,10,28,04,06,-0.70
2019,10,28,04,07,-0.70
2019,10,28,04,08,-0.70
2019,10,28,04,09,-0.80
2019,10,28,04,10,-0.80
2019,10,28,04,11,-0.80
2019,10,28,04,12,-0.80
2019,10,28,04,13,-0.80
2019,10,28,04,14,-0.80
2019,10,28,04,15,-0.80
2019,10,28,04,16,-0.80
2019,10,28,04,17,-0.80
2019,10,28,04,18,-0.80
2019,10,28,04,19,-0.80
2019,10,28,04,20,-0.90
2019,10,28,04,21,-0.90
2019,10,28,04,22,-0.90
2019,10,28,04,23,-0.90
2019,10,28,04,24,-0.90
2019,10,28,04,25,-0.90
2019,10,28,04,26,-0.90
2019,10,28,04,27,-0.90
2019,10,28,04,28,-0.90
2019,10,28,04,29,-0.90
2019,10,28,04,30,-1.00
2019,10,28,04,31,-1.00
2019,10,28,04,32,-1.00
2019,10,28,04,33,-1.00
2019,10,28,04,34,-1.00
2019,10,28,04,35,-1.00
2019,10,28,04,36,-1.00
2019,10,28,04,37,-1.10
2019,10,28,04,38,-1.10
2019,10,28,04,39,-1.10
2019,10,28,04,40,-1.10
2019,10,28,04,41,-1.10
2019,10,28,04,42,-1.10
2019,10,28,04,43,-1.10
2019,10,28,04,44,-1.10
2019,10,28,04,45,-1.10
2019,10,28,04,46,-1.20
2019,10,28,04,47,-1.20
2019,10,28,04,48,-1.20
2019,10,28,04,49,-1.20
2019,10,28,04,50,-1.20
2019,10,28,04,51,-1.20
2019,10,28,04,52,-1.20
2019,10,28,04,53,-1.20
2019,10,28,04,54,-1.20
2019,10,28,04,55,-1.20
2019,10,28,04,56,-1.20
2019,10,28,04,57,-1.20
2019,10,28,04,58,-1.20
2019,10,28,04,59,-1.20
2019,10,28,05,00,-1.20
2019,10,28,05,01,-1.20
2019,10,28,05,02,-1.20
2019,10,28,05,03,-1.20
2019,10,28,05,04,-1.20
2019,10,28,05,05,-1.20
2019,10,28,05,06,-1.20
2019,10,28,05,07,-1.20
2019,10,28,05,08,-1.20
2019,10,28,05,09,-1.20
2019,10,28,05,10,-1.20
2019,10,28,05,11,-1.20
2019,10,28,05,12,-1.20
2019,10,28,05,13,-1.20
2019,10,28,05,14,-1.20
2019,10,28,05,15,-1.20
2019,10,28,05,16,-1.20
2019,10,28,05,17,-1.20
2019,10,28,05,18,-1.20
2019,10,28,05,19,-1.30
2019,10,28,05,20,-1.30
2019,10,28,05,21,-1.30
2019,10,28,05,22,-1.30
2019,10,28,05,23,-1.30
2019,10,28,05,24,-1.30
2019,10,28,05,25,-1.30
2019,10,28,05,26,-1.30
2019,10,28,05,27,-1.30
2019,10,28,05,28,-1.30
2019,10,28,05,29,-1.30
2019,10,28,05,30,-1.30
2019,10,28,05,31,-1.30
2019,10,28,05,32,-1.30
2019,10,28,05,33,-1.30
2019,10,28,05,34,-1.30
2019,10,28,05,35,-1.30
2019,10,28,05,36,-1.30
2019,10,28,05,37,-1.30
2019,10,28,05,38,-1.30
2019,10,28,05,39,-1.40
2019,10,28,05,40,-1.40
2019,10,28,05,41,-1.40
2019,10,28,05,42,-1.40
2019,10,28,05,43,-1.40
2019,10,28,05,44,-1.40
2019,10,28,05,45,-1.50
2019,10,28,05,46,-1.50
2019,10,28,05,47,-1.50
2019,10,28,05,48,-1.50
2019,10,28,05,49,-1.50
2019,10,28,05,50,-1.50
2019,10,28,05,51,-1.50
2019,10,28,05,52,-1.50
2019,10,28,05,53,-1.50
2019,10,28,05,54,-1.40
2019,10,28,05,55,-1.40
2019,10,28,05,56,-1.40
2019,10,28,05,57,-1.40
2019,10,28,05,58,-1.40
2019,10,28,05,59,-1.40
2019,10,28,06,00,-1.40
2019,10,28,06,01,-1.40
2019,10,28,06,02,-1.30
2019,10,28,06,03,-1.30
2019,10,28,06,04,-1.30
2019,10,28,06,05,-1.30
2019,10,28,06,06,-1.30
2019,10,28,06,07,-1.30
2019,10,28,06,08,-1.30
2019,10,28,06,09,-1.30
2019,10,28,06,10,-1.30
2019,10,28,06,11,-1.30
2019,10,28,06,12,-1.30
2019,10,28,06,13,-1.30
2019,10,28,06,14,-1.30
2019,10,28,06,15,-1.20
2019,10,28,06,16,-1.20
2019,10,28,06,17,-1.20
2019,10,28,06,18,-1.20
2019,10,28,06,19,-1.20
2019,10,28,06,20,-1.20
2019,10,28,06,21,-1.20
2019,10,28,06,22,-1.20
2019,10,28,06,23,-1.20
2019,10,28,06,24,-1.20
2019,10,28,06,25,-1.20
2019,10,28,08,39,-1.10
2019,10,28,08,40,-1.10
2019,10,28,08,41,-1.10
2019,10,28,08,42,-1.10
2019,10,28,08,43,-1.10
2019,10,28,08,44,-1.10
2019,10,28,08,45,-1.10
2019,10,28,08,46,-1.10
2019,10,28,08,47,-1.00
2019,10,28,08,48,-1.00
2019,10,28,08,49,-1.00
2019,10,28,08,50,-1.00
2019,10,28,08,51,-0.90
2019,10,28,08,52,-0.90
2019,10,28,08,53,-0.90
2019,10,28,08,54,-0.90
2019,10,28,08,55,-0.90
2019,10,28,08,56,-0.90
2019,10,28,08,57,-0.80
2019,10,28,08,58,-0.80
2019,10,28,08,59,-0.80
2019,10,28,09,00,-0.80
2019,10,28,09,01,-0.80
2019,10,28,09,02,-0.80
2019,10,28,09,03,-0.70
2019,10,28,09,04,-0.70
2019,10,28,09,05,-0.70
2019,10,28,09,06,-0.70
2019,10,28,09,07,-0.70
2019,10,28,09,08,-0.60
2019,10,28,09,09,-0.60
2019,10,28,09,10,-0.50
2019,10,28,09,11,-0.50
2019,10,28,09,12,-0.40
2019,10,28,09,13,-0.30
2019,10,28,09,14,-0.30
2019,10,28,09,15,-0.20
2019,10,28,09,16,-0.20
2019,10,28,09,17,-0.10
2019,10,28,09,18,-0.10
2019,10,28,09,19,-0.10
2019,10,28,09,20,0.00
2019,10,28,09,21,0.00
2019,10,28,09,22,0.00
2019,10,28,09,23,0.00
2019,10,28,09,24,0.00
2019,10,28,09,25,0.10
2019,10,28,09,26,0.10
2019,10,28,09,27,0.10
2019,10,28,09,28,0.10
2019,10,28,09,29,0.20
2019,10,28,09,30,0.20
2019,10,28,09,31,0.20
2019,10,28,09,32,0.20
2019,10,28,09,33,0.20
2019,10,28,09,34,0.30
2019,10,28,09,35,0.30
2019,10,28,09,36,0.30
2019,10,28,09,37,0.30
2019,10,28,09,38,0.40
2019,10,28,09,39,0.50
2019,10,28,09,40,0.50
2019,10,28,09,41,0.60
2019,10,28,09,42,0.70
2019,10,28,09,43,0.70
2019,10,28,09,44,0.80
2019,10,28,09,45,0.90
2019,10,28,09,46,1.00
2019,10,28,09,47,1.10
2019,10,28,09,48,1.20
2019,10,28,09,49,1.30
2019,10,28,09,50,1.30
2019,10,28,09,51,1.50
2019,10,28,09,52,1.50
2019,10,28,09,53,1.60
2019,10,28,09,54,1.60
2019,10,28,09,55,1.70
2019,10,28,09,56,1.70
2019,10,28,09,57,1.80
2019,10,28,09,58,1.80
2019,10,28,09,59,1.90
2019,10,28,10,00,2.00
2019,10,28,10,01,2.10
2019,10,28,10,02,2.20
2019,10,28,10,03,2.20
2019,10,28,10,04,2.30
2019,10,28,10,05,2.30
2019,10,28,10,06,2.40
2019,10,28,10,07,2.50
2019,10,28,10,08,2.70
2019,10,28,10,09,2.80
2019,10,28,10,10,2.90
2019,10,28,10,11,3.10
2019,10,28,10,12,3.30
2019,10,28,10,13,3.40
2019,10,28,10,14,3.50
2019,10,28,10,15,3.60
2019,10,28,10,16,3.70
2019,10,28,10,17,3.80
2019,10,28,10,18,3.80
2019,10,28,10,19,3.80
2019,10,28,10,20,3.90
2019,10,28,10,21,3.90
2019,10,28,10,22,4.00
2019,10,28,10,23,4.10
2019,10,28,10,24,4.20
2019,10,28,10,25,4.30
2019,10,28,10,26,4.40
2019,10,28,10,27,4.50
2019,10,28,10,28,4.60
2019,10,28,10,29,4.60
2019,10,28,10,30,4.70
2019,10,28,10,31,4.60
2019,10,28,10,32,4.50
2019,10,28,10,33,4.50
2019,10,28,10,34,4.40
2019,10,28,10,35,4.50
2019,10,28,10,36,4.50
2019,10,28,10,37,4.50
2019,10,28,10,38,4.50
2019,10,28,10,39,4.60
2019,10,28,10,40,4.70
2019,10,28,10,41,4.70
2019,10,28,10,42,4.70
2019,10,28,10,43,4.70
2019,10,28,10,44,4.60
2019,10,28,10,45,4.60
2019,10,28,10,46,4.60
2019,10,28,10,47,4.60
2019,10,28,10,48,4.60
2019,10,28,10,49,4.70
2019,10,28,10,50,4.80
2019,10,28,10,51,4.90
2019,10,28,10,52,5.00
2019,10,28,10,53,5.20
2019,10,28,10,54,5.30
2019,10,28,10,55,5.40
2019,10,28,10,56,5.60
2019,10,28,10,57,5.70
2019,10,28,10,58,5.80
2019,10,28,10,59,5.90
2019,10,28,11,00,5.90
2019,10,28,11,01,5.90
2019,10,28,11,02,6.00
2019,10,28,11,03,6.10
2019,10,28,11,04,6.10
2019,10,28,11,05,6.10
2019,10,28,11,06,6.10
2019,10,28,11,07,6.10
2019,10,28,11,08,6.10
2019,10,28,11,09,6.00
2019,10,28,11,10,6.10
2019,10,28,11,11,6.10
2019,10,28,11,12,6.00
2019,10,28,11,13,6.00
2019,10,28,11,14,6.00
2019,10,28,11,15,6.10
2019,10,28,11,16,6.20
2019,10,28,11,17,6.30
2019,10,28,11,18,6.40
2019,10,28,11,19,6.50
2019,10,28,11,20,6.50
2019,10,28,11,21,6.60
2019,10,28,11,22,6.60
2019,10,28,11,23,6.70
2019,10,28,11,24,6.80
2019,10,28,11,25,6.80
2019,10,28,11,26,6.90
2019,10,28,11,27,7.00
2019,10,28,11,28,7.00
2019,10,28,11,29,7.00
2019,10,28,11,30,7.00
2019,10,28,11,31,7.00
2019,10,28,11,32,7.00
2019,10,28,11,33,7.10
2019,10,28,11,34,7.10
2019,10,28,11,35,7.20
2019,10,28,11,36,7.20
2019,10,28,11,37,7.30
2019,10,28,11,38,7.40
2019,10,28,11,39,7.50
2019,10,28,11,40,7.60
2019,10,28,11,41,7.70
2019,10,28,11,42,7.70
2019,10,28,11,43,7.80
2019,10,28,11,44,7.80
2019,10,28,11,45,7.90
2019,10,28,11,46,7.90
2019,10,28,11,47,7.90
2019,10,28,11,48,8.00
2019,10,28,11,49,8.00
2019,10,28,11,50,8.10
2019,10,28,11,51,8.10
2019,10,28,11,52,8.20
2019,10,28,11,53,8.10
2019,10,28,11,54,8.10
2019,10,28,11,55,8.20
2019,10,28,11,56,8.20
2019,10,28,11,57,8.20
2019,10,28,11,58,8.20
2019,10,28,11,59,8.30
2019,10,28,12,00,8.30
2019,10,28,12,01,8.30
2019,10,28,12,02,8.30
2019,10,28,12,03,8.30
2019,10,28,12,04,8.20
2019,10,28,12,05,8.20
2019,10,28,12,06,8.20
2019,10,28,12,07,8.20
2019,10,28,12,08,8.20
2019,10,28,12,09,8.20
2019,10,28,12,10,8.20
2019,10,28,12,11,8.20
2019,10,28,12,12,8.30
2019,10,28,12,13,8.30
2019,10,28,12,14,8.40
2019,10,28,12,15,8.40
2019,10,28,12,16,8.40
2019,10,28,12,17,8.40
2019,10,28,12,18,8.50
2019,10,28,12,19,8.40
2019,10,28,12,20,8.40
2019,10,28,12,21,8.40
2019,10,28,12,22,8.50
2019,10,28,12,23,8.50
2019,10,28,12,24,8.60
2019,10,28,12,25,8.70
2019,10,28,12,26,8.80
2019,10,28,12,27,8.90
2019,10,28,12,28,9.00
2019,10,28,12,29,9.10
2019,10,28,12,30,9.10
2019,10,28,12,31,9.00
2019,10,28,12,32,8.90
2019,10,28,12,33,8.90
2019,10,28,12,34,8.90
2019,10,28,12,35,8.80
2019,10,28,12,36,8.90
2019,10,28,12,37,8.90
2019,10,28,12,38,8.90
2019,10,28,12,39,8.90
2019,10,28,12,40,8.90
2019,10,28,12,41,8.90
2019,10,28,12,42,8.90
2019,10,28,12,43,8.90
2019,10,28,12,44,8.80
2019,10,28,12,45,8.80
2019,10,28,12,46,8.80
2019,10,28,12,47,8.90
2019,10,28,12,48,9.00
2019,10,28,12,49,9.10
2019,10,28,12,50,9.20
2019,10,28,12,51,9.20
2019,10,28,12,52,9.20
2019,10,28,12,53,9.10
2019,10,28,12,54,9.10
2019,10,28,12,55,9.10
2019,10,28,12,56,9.10
2019,10,28,12,57,9.10
2019,10,28,12,58,9.10
2019,10,28,12,59,9.00
2019,10,28,13,00,9.00
2019,10,28,13,01,9.00
2019,10,28,13,02,9.10
2019,10,28,13,03,9.10
2019,10,28,13,04,9.10
2019,10,28,13,05,9.20
2019,10,28,13,06,9.20
2019,10,28,13,07,9.40
2019,10,28,13,08,9.50
2019,10,28,13,09,9.50
2019,10,28,13,10,9.60
2019,10,28,13,11,9.60
2019,10,28,13,12,9.50
2019,10,28,13,13,9.40
2019,10,28,13,14,9.30
2019,10,28,13,15,9.30
2019,10,28,13,16,9.20
2019,10,28,13,17,9.20
2019,10,28,13,18,9.20
2019,10,28,13,19,9.20
2019,10,28,13,20,9.20
2019,10,28,13,21,9.20
2019,10,28,13,22,9.20
2019,10,28,13,23,9.20
2019,10,28,13,24,9.20
2019,10,28,13,25,9.20
2019,10,28,13,26,9.20
2019,10,28,13,27,9.20
2019,10,28,13,28,9.20
2019,10,28,13,29,9.20
2019,10,28,13,30,9.20
2019,10,28,13,31,9.20
2019,10,28,13,32,9.30
2019,10,28,13,33,9.30
2019,10,28,13,34,9.30
2019,10,28,13,35,9.40
2019,10,28,13,36,9.50
2019,10,28,13,37,9.60
2019,10,28,13,38,9.60
2019,10,28,13,39,9.70
2019,10,28,13,40,9.70
2019,10,28,13,41,9.80
2019,10,28,13,42,9.90
2019,10,28,13,43,9.90
2019,10,28,13,44,9.90
2019,10,28,13,45,9.80
2019,10,28,13,46,9.80
2019,10,28,13,47,9.70
2019,10,28,13,48,9.70
2019,10,28,13,49,9.70
2019,10,28,13,50,9.70
2019,10,28,13,51,9.70
2019,10,28,13,52,9.70
2019,10,28,13,53,9.70
2019,10,28,13,54,9.70
2019,10,28,13,55,9.80
2019,10,28,13,56,9.80
2019,10,28,13,57,9.80
2019,10,28,13,58,9.80
2019,10,28,13,59,9.80
2019,10,28,14,00,9.80
2019,10,28,14,01,9.80
2019,10,28,14,02,9.80
2019,10,28,14,03,9.80
2019,10,28,14,04,9.80
2019,10,28,14,05,9.80
2019,10,28,14,06,9.80
2019,10,28,14,07,9.80
2019,10,28,14,08,9.80
2019,10,28,14,09,9.80
2019,10,28,14,10,9.80
2019,10,28,14,11,9.80
2019,10,28,14,12,9.90
2019,10,28,14,13,9.90
2019,10,28,14,14,9.90
2019,10,28,14,15,9.90
2019,10,28,14,16,9.90
2019,10,28,14,17,9.90
2019,10,28,14,18,10.00
2019,10,28,14,19,9.90
2019,10,28,14,20,9.90
2019,10,28,14,21,9.90
2019,10,28,14,22,9.90
2019,10,28,14,23,9.80
2019,10,28,14,24,9.80
2019,10,28,14,25,9.80
2019,10,28,14,26,9.80
2019,10,28,14,27,9.80
2019,10,28,14,28,9.80
2019,10,28,14,29,9.80
2019,10,28,14,30,9.70
2019,10,28,14,31,9.70
2019,10,28,14,32,9.80
2019,10,28,14,33,9.80
2019,10,28,14,34,9.80
2019,10,28,14,35,9.80
2019,10,28,14,36,9.80
2019,10,28,14,37,9.80
2019,10,28,14,38,9.70
2019,10,28,14,39,9.70
2019,10,28,14,40,9.80
2019,10,28,14,41,9.80
2019,10,28,14,42,9.80
2019,10,28,14,43,9.90
2019,10,28,14,44,9.90
2019,10,28,14,45,9.90
2019,10,28,14,46,9.90
2019,10,28,14,47,9.90
2019,10,28,14,48,10.00
2019,10,28,14,49,10.00
2019,10,28,14,50,10.10
2019,10,28,14,51,10.10
2019,10,28,14,52,10.10
2019,10,28,14,53,10.10
2019,10,28,14,54,10.10
2019,10,28,14,55,10.10
2019,10,28,14,56,10.10
2019,10,28,14,57,10.20
2019,10,28,14,58,10.20
2019,10,28,14,59,10.20
2019,10,28,15,00,10.20
2019,10,28,15,01,10.30
2019,10,28,15,02,10.30
2019,10,28,15,03,10.40
2019,10,28,15,04,10.40
2019,10,28,15,05,10.50
2019,10,28,15,06,10.60
2019,10,28,15,07,10.50
2019,10,28,15,08,10.40
2019,10,28,15,09,10.40
2019,10,28,15,10,10.40
2019,10,28,15,11,10.30
2019,10,28,15,12,10.30
2019,10,28,15,13,10.30
2019,10,28,15,14,10.20
2019,10,28,15,15,10.20
2019,10,28,15,16,10.20
2019,10,28,15,17,10.20
2019,10,28,15,18,10.20
2019,10,28,15,19,10.20
2019,10,28,15,20,10.20
2019,10,28,15,21,10.30
2019,10,28,15,22,10.30
2019,10,28,15,23,10.30
2019,10,28,15,24,10.30
2019,10,28,15,25,10.30
2019,10,28,15,26,10.30
2019,10,28,15,27,10.30
2019,10,28,15,28,10.30
2019,10,28,15,29,10.30
2019,10,28,15,30,10.30
2019,10,28,15,31,10.30
2019,10,28,15,32,10.30
2019,10,28,15,33,10.20
2019,10,28,15,34,10.20
2019,10,28,15,35,10.20
2019,10,28,15,36,10.20
2019,10,28,15,37,10.20
2019,10,28,15,38,10.20
2019,10,28,15,39,10.20
2019,10,28,15,40,10.20
2019,10,28,15,41,10.20
2019,10,28,15,42,10.20
2019,10,28,15,43,10.20
2019,10,28,15,44,10.20
2019,10,28,15,45,10.20
2019,10,28,15,46,10.20
2019,10,28,15,47,10.20
2019,10,28,15,48,10.20
2019,10,28,15,49,10.20
2019,10,28,15,50,10.20
2019,10,28,15,51,10.20
2019,10,28,15,52,10.20
2019,10,28,15,53,10.10
2019,10,28,15,54,10.10
2019,10,28,15,55,10.10
2019,10,28,15,56,10.10
2019,10,28,15,57,10.10
2019,10,28,15,58,10.10
2019,10,28,15,59,10.00
2019,10,28,16,00,10.00
2019,10,28,16,01,9.90
2019,10,28,16,02,9.80
2019,10,28,16,03,9.80
2019,10,28,16,04,9.80
2019,10,28,16,05,9.70
2019,10,28,16,06,9.70
2019,10,28,16,07,9.70
2019,10,28,16,08,9.70
2019,10,28,16,09,9.70
2019,10,28,16,10,9.70
2019,10,28,16,11,9.70
2019,10,28,16,12,9.70
2019,10,28,16,13,9.70
2019,10,28,16,14,9.60
2019,10,28,16,15,9.60
2019,10,28,16,16,9.60
2019,10,28,16,17,9.60
2019,10,28,16,18,9.60
2019,10,28,16,19,9.60
2019,10,28,16,20,9.60
2019,10,28,16,21,9.60
2019,10,28,16,22,9.60
2019,10,28,16,23,9.60
2019,10,28,16,24,9.60
2019,10,28,16,25,9.60
2019,10,28,16,26,9.60
2019,10,28,16,27,9.60
2019,10,28,16,28,9.60
2019,10,28,16,29,9.60
2019,10,28,16,30,9.60
2019,10,28,16,31,9.60
2019,10,28,16,32,9.60
2019,10,28,16,33,9.60
2019,10,28,16,34,9.60
2019,10,28,16,35,9.60
2019,10,28,16,36,9.60
2019,10,28,16,37,9.50
2019,10,28,16,38,9.50
2019,10,28,16,39,9.50
2019,10,28,16,40,9.40
2019,10,28,16,41,9.40
2019,10,28,16,42,9.40
2019,10,28,16,43,9.40
2019,10,28,16,44,9.40
2019,10,28,16,45,9.40
2019,10,28,16,46,9.40
2019,10,28,16,47,9.40
2019,10,28,16,48,9.30
2019,10,28,16,49,9.30
2019,10,28,16,50,9.30
2019,10,28,16,51,9.30
2019,10,28,16,52,9.20
2019,10,28,16,53,9.20
2019,10,28,16,54,9.20
2019,10,28,16,55,9.20
2019,10,28,16,56,9.20
2019,10,28,16,57,9.10
2019,10,28,16,58,9.10
2019,10,28,16,59,9.10
2019,10,28,17,00,9.10
2019,10,28,17,01,9.10
2019,10,28,17,02,9.00
2019,10,28,17,03,9.00
2019,10,28,17,04,8.90
2019,10,28,17,05,8.90
2019,10,28,17,06,8.90
2019,10,28,17,07,8.80
2019,10,28,17,08,8.80
2019,10,28,17,09,8.80
2019,10,28,17,10,8.80
2019,10,28,17,11,8.80
2019,10,28,17,12,8.70
2019,10,28,17,13,8.70
2019,10,28,17,14,8.70
2019,10,28,17,15,8.70
2019,10,28,17,16,8.70
2019,10,28,17,17,8.60
2019,10,28,17,18,8.60
2019,10,28,17,19,8.60
2019,10,28,17,20,8.60
2019,10,28,17,21,8.60
2019,10,28,17,22,8.60
2019,10,28,17,23,8.50
2019,10,28,17,24,8.50
2019,10,28,17,25,8.50
2019,10,28,17,26,8.40
2019,10,28,17,27,8.40
2019,10,28,17,28,8.40
2019,10,28,17,29,8.40
2019,10,28,17,30,8.30
2019,10,28,17,31,8.30
2019,10,28,17,32,8.30
2019,10,28,17,33,8.30
2019,10,28,17,34,8.30
2019,10,28,17,35,8.20
2019,10,28,17,36,8.20
2019,10,28,17,37,8.20
2019,10,28,17,38,8.10
2019,10,28,17,39,8.10
2019,10,28,17,40,8.10
2019,10,28,17,41,8.10
2019,10,28,17,42,8.00
2019,10,28,17,43,8.00
2019,10,28,17,44,7.90
2019,10,28,17,45,7.90
2019,10,28,17,46,7.80
2019,10,28,17,47,7.80
2019,10,28,17,48,7.80
2019,10,28,17,49,7.70
2019,10,28,17,50,7.70
2019,10,28,17,51,7.60
2019,10,28,17,52,7.60
2019,10,28,17,53,7.50
2019,10,28,17,54,7.50
2019,10,28,17,55,7.40
2019,10,28,17,56,7.40
2019,10,28,17,57,7.30
2019,10,28,17,58,7.30
2019,10,28,17,59,7.30
2019,10,28,18,00,7.20
2019,10,28,18,01,7.20
2019,10,28,18,02,7.20
2019,10,28,18,03,7.10
2019,10,28,18,04,7.10
2019,10,28,18,05,7.00
2019,10,28,18,06,7.00
2019,10,28,18,07,6.90
2019,10,28,18,08,6.90
2019,10,28,18,09,6.80
2019,10,28,18,10,6.80
2019,10,28,18,11,6.80
2019,10,28,18,12,6.70
2019,10,28,18,13,6.70
2019,10,28,18,14,6.70
2019,10,28,18,15,6.70
2019,10,28,18,16,6.60
2019,10,28,18,17,6.60
2019,10,28,18,18,6.50
2019,10,28,18,19,6.50
2019,10,28,18,20,6.40
2019,10,28,18,21,6.40
2019,10,28,18,22,6.40
2019,10,28,18,23,6.40
2019,10,28,18,24,6.30
2019,10,28,18,25,6.30
2019,10,28,18,26,6.30
2019,10,28,18,27,6.20
2019,10,28,18,28,6.20
2019,10,28,18,29,6.20
2019,10,28,18,30,6.10
2019,10,28,18,31,6.10
2019,10,28,18,32,6.00
2019,10,28,18,33,6.00
2019,10,28,18,34,5.90
2019,10,28,18,35,5.90
2019,10,28,18,36,5.80
2019,10,28,18,37,5.80
2019,10,28,18,38,5.80
2019,10,28,18,39,5.70
2019,10,28,18,40,5.60
2019,10,28,18,41,5.60
2019,10,28,18,42,5.50
2019,10,28,18,43,5.50
2019,10,28,18,44,5.40
2019,10,28,18,45,5.40
2019,10,28,18,46,5.30
2019,10,28,18,47,5.30
2019,10,28,18,48,5.20
2019,10,28,18,49,5.20
2019,10,28,18,50,5.10
2019,10,28,18,51,5.10
2019,10,28,18,52,5.10
2019,10,28,18,53,5.00
2019,10,28,18,54,5.00
2019,10,28,18,55,4.90
2019,10,28,18,56,4.90
2019,10,28,18,57,4.80
2019,10,28,18,58,4.80
2019,10,28,18,59,4.80
2019,10,28,19,00,4.80
2019,10,28,19,01,4.70
2019,10,28,19,02,4.70
2019,10,28,19,03,4.70
2019,10,28,19,04,4.60
2019,10,28,19,05,4.60
2019,10,28,19,06,4.60
2019,10,28,19,07,4.60
2019,10,28,19,08,4.50
2019,10,28,19,09,4.50
2019,10,28,19,10,4.50
2019,10,28,19,11,4.40
2019,10,28,19,12,4.40
2019,10,28,19,13,4.40
2019,10,28,19,14,4.40
2019,10,28,19,15,4.30
2019,10,28,19,16,4.30
2019,10,28,19,17,4.30
2019,10,28,19,18,4.30
2019,10,28,19,19,4.20
2019,10,28,19,20,4.20
2019,10,28,19,21,4.20
2019,10,28,19,22,4.30
2019,10,28,19,23,4.30
2019,10,28,19,24,4.20
2019,10,28,19,25,4.20
2019,10,28,19,26,4.20
2019,10,28,19,27,4.20
2019,10,28,19,28,4.20
2019,10,28,19,29,4.20
2019,10,28,19,30,4.20
2019,10,28,19,31,4.20
2019,10,28,19,32,4.20
2019,10,28,19,33,4.20
2019,10,28,19,34,4.20
2019,10,28,19,35,4.20
2019,10,28,19,36,4.20
2019,10,28,19,37,4.20
2019,10,28,19,38,4.20
2019,10,28,19,39,4.20
2019,10,28,19,40,4.10
2019,10,28,19,41,4.10
2019,10,28,19,42,4.10
2019,10,28,19,43,4.10
2019,10,28,19,44,4.10
2019,10,28,19,45,4.10
2019,10,28,19,46,4.10
2019,10,28,19,47,4.10
2019,10,28,19,48,4.10
2019,10,28,19,49,4.10
2019,10,28,19,50,4.10
2019,10,28,19,51,4.10
2019,10,28,19,52,4.10
2019,10,28,19,53,4.10
2019,10,28,19,54,4.10
2019,10,28,19,55,4.10
2019,10,28,19,56,4.10
2019,10,28,19,57,4.10
2019,10,28,19,58,4.10
2019,10,28,19,59,4.10
2019,10,28,20,00,4.10
2019,10,28,20,01,4.10
2019,10,28,20,02,4.10